EZY12KC EGAA-EGKK

Flight info

Callsign EZY12KC
Flight time 0h 50m
Altitude 33000
Route LISBO DCT RINGA DCT BABGU DCT ETIGA DCT INKOB Q39 NOMSU UQ4 WAL L151 DISIT
Aircraft A21N/M-SDE3FGHIRWY/LB1

Departure

Time 2026-05-04 19:20
Airport Belfast International Airport (EGAA)

Arrival

Time 2026-05-04 20:10
Airport London Gatwick Airport (EGKK)
Time Latitude Longitude Altitude Speed Heading
2026-05-04 18:56 54.66110 -6.21348 244 ft 0 kts 246°
2026-05-04 19:09 54.66110 -6.21347 244 ft 1 kts 246°
2026-05-04 19:09 54.66116 -6.21324 245 ft 2 kts 246°
2026-05-04 19:09 54.66121 -6.21308 245 ft 1 kts 246°
2026-05-04 19:09 54.66129 -6.21288 246 ft 2 kts 212°
2026-05-04 19:10 54.66143 -6.21279 245 ft 2 kts 180°
2026-05-04 19:10 54.66153 -6.21281 245 ft 0 kts 159°
2026-05-04 19:10 54.66148 -6.21279 245 ft 3 kts 162°
2026-05-04 19:10 54.66127 -6.21263 246 ft 1 kts 156°
2026-05-04 19:11 54.66125 -6.21263 246 ft 0 kts 156°
2026-05-04 19:11 54.66125 -6.21262 246 ft 0 kts 156°
2026-05-04 19:14 54.66124 -6.21261 246 ft 0 kts 156°
2026-05-04 19:14 54.66112 -6.21253 246 ft 3 kts 157°
2026-05-04 19:14 54.66082 -6.21230 247 ft 5 kts 157°
2026-05-04 19:15 54.66041 -6.21214 247 ft 6 kts 200°
2026-05-04 19:15 54.66007 -6.21300 245 ft 11 kts 248°
2026-05-04 19:15 54.65966 -6.21456 242 ft 16 kts 244°
2026-05-04 19:15 54.65911 -6.21658 239 ft 19 kts 245°
2026-05-04 19:16 54.65850 -6.21884 235 ft 22 kts 245°
2026-05-04 19:16 54.65787 -6.22130 232 ft 22 kts 252°
2026-05-04 19:16 54.65760 -6.22408 227 ft 24 kts 265°
2026-05-04 19:16 54.65744 -6.22682 221 ft 20 kts 263°
2026-05-04 19:17 54.65702 -6.22916 219 ft 20 kts 236°
2026-05-04 19:17 54.65621 -6.23110 217 ft 19 kts 234°
2026-05-04 19:17 54.65559 -6.23255 214 ft 12 kts 234°
2026-05-04 19:17 54.65493 -6.23347 213 ft 10 kts 201°
2026-05-04 19:18 54.65426 -6.23391 214 ft 8 kts 200°
2026-05-04 19:18 54.65367 -6.23399 214 ft 8 kts 161°
2026-05-04 19:18 54.65314 -6.23360 216 ft 8 kts 156°
2026-05-04 19:18 54.65284 -6.23299 217 ft 4 kts 77°
2026-05-04 19:19 54.65288 -6.23285 217 ft 3 kts 63°
2026-05-04 19:19 54.65402 -6.22871 225 ft 80 kts 65°
2026-05-04 19:19 54.65743 -6.21598 242 ft 152 kts 64°
2026-05-04 19:19 54.66233 -6.19774 744 ft 172 kts 62°
2026-05-04 19:20 54.66706 -6.17923 1607 ft 174 kts 65°
2026-05-04 19:20 54.66881 -6.15819 2326 ft 192 kts 93°
2026-05-04 19:20 54.66414 -6.13556 2935 ft 214 kts 123°
2026-05-04 19:20 54.65245 -6.11833 3504 ft 236 kts 154°
2026-05-04 19:21 54.63618 -6.10955 4039 ft 260 kts 173°
2026-05-04 19:21 54.61818 -6.10138 4803 ft 277 kts 151°
2026-05-04 19:21 54.60483 -6.07846 5758 ft 283 kts 120°
2026-05-04 19:21 54.59569 -6.04877 6772 ft 286 kts 117°
2026-05-04 19:22 54.58611 -6.01868 7722 ft 292 kts 120°
2026-05-04 19:22 54.57543 -5.98868 8686 ft 295 kts 122°
2026-05-04 19:22 54.56408 -5.95934 9613 ft 299 kts 124°
2026-05-04 19:22 54.55214 -5.92996 10524 ft 303 kts 125°
2026-05-04 19:23 54.53974 -5.90027 11161 ft 318 kts 126°
2026-05-04 19:23 54.52648 -5.86895 11591 ft 336 kts 126°
2026-05-04 19:23 54.51225 -5.83557 12102 ft 353 kts 126°
2026-05-04 19:23 54.49755 -5.80120 12859 ft 361 kts 126°
2026-05-04 19:24 54.48268 -5.76652 13732 ft 364 kts 126°
2026-05-04 19:24 54.46776 -5.73179 14533 ft 368 kts 126°
2026-05-04 19:24 54.45245 -5.69622 15295 ft 373 kts 126°
2026-05-04 19:24 54.43700 -5.66042 16046 ft 377 kts 126°
2026-05-04 19:25 54.42140 -5.62429 16672 ft 382 kts 126°
2026-05-04 19:25 54.40562 -5.58778 17033 ft 384 kts 126°
2026-05-04 19:25 54.38975 -5.55045 17556 ft 391 kts 124°
2026-05-04 19:25 54.37433 -5.51245 18345 ft 391 kts 123°
2026-05-04 19:26 54.35887 -5.47398 19091 ft 394 kts 123°
2026-05-04 19:26 54.34351 -5.43578 19763 ft 397 kts 123°
2026-05-04 19:26 54.32773 -5.39676 20412 ft 401 kts 123°
2026-05-04 19:26 54.31177 -5.35751 21052 ft 404 kts 123°
2026-05-04 19:27 54.29589 -5.31855 21692 ft 407 kts 124°
2026-05-04 19:27 54.27952 -5.27910 22301 ft 410 kts 126°
2026-05-04 19:27 54.26156 -5.24015 22888 ft 414 kts 128°
2026-05-04 19:27 54.24334 -5.20215 23463 ft 417 kts 128°
2026-05-04 19:28 54.22504 -5.16413 24016 ft 420 kts 128°
2026-05-04 19:28 54.20641 -5.12548 24568 ft 423 kts 128°
2026-05-04 19:28 54.18758 -5.08643 25079 ft 427 kts 128°
2026-05-04 19:28 54.16878 -5.04751 25476 ft 433 kts 128°
2026-05-04 19:29 54.14953 -5.00765 25660 ft 444 kts 128°
2026-05-04 19:29 54.12958 -4.96643 25857 ft 453 kts 128°
2026-05-04 19:29 54.10957 -4.92513 26064 ft 462 kts 128°
2026-05-04 19:29 54.08901 -4.88281 26471 ft 464 kts 128°
2026-05-04 19:30 54.06849 -4.84069 27057 ft 463 kts 128°
2026-05-04 19:30 54.04817 -4.79891 27680 ft 460 kts 127°
2026-05-04 19:30 54.02873 -4.75615 28261 ft 458 kts 126°
2026-05-04 19:30 54.00944 -4.71287 28787 ft 457 kts 125°
2026-05-04 19:31 53.99049 -4.67033 29288 ft 457 kts 125°
2026-05-04 19:31 53.97128 -4.62730 29772 ft 457 kts 125°
2026-05-04 19:31 53.95213 -4.58448 30263 ft 456 kts 125°
2026-05-04 19:31 53.93304 -4.54183 30757 ft 455 kts 125°
2026-05-04 19:32 53.91416 -4.49973 31260 ft 453 kts 125°
2026-05-04 19:32 53.89505 -4.45723 31723 ft 452 kts 125°
2026-05-04 19:32 53.87604 -4.41494 32076 ft 453 kts 124°
2026-05-04 19:32 53.85791 -4.37176 32395 ft 454 kts 122°
2026-05-04 19:33 53.83983 -4.32751 32716 ft 455 kts 123°
2026-05-04 19:33 53.82198 -4.28381 33007 ft 457 kts 123°
2026-05-04 19:33 53.80374 -4.23926 33062 ft 458 kts 122°
2026-05-04 19:34 53.76759 -4.15118 33065 ft 458 kts 122°
2026-05-04 19:34 53.73130 -4.06309 33062 ft 458 kts 122°
2026-05-04 19:35 53.69506 -3.97544 33059 ft 458 kts 122°
2026-05-04 19:35 53.65854 -3.88755 33063 ft 457 kts 122°
2026-05-04 19:36 53.62222 -3.80047 33059 ft 455 kts 122°
2026-05-04 19:36 53.58590 -3.71362 33058 ft 454 kts 122°
2026-05-04 19:37 53.54979 -3.62752 33057 ft 454 kts 122°
2026-05-04 19:37 53.51319 -3.54066 33055 ft 453 kts 122°
2026-05-04 19:38 53.47839 -3.45308 33058 ft 451 kts 117°
2026-05-04 19:38 53.44952 -3.36075 33056 ft 448 kts 111°
2026-05-04 19:39 53.42484 -3.26528 33058 ft 447 kts 112°
2026-05-04 19:39 53.39308 -3.17597 33058 ft 451 kts 123°
2026-05-04 19:40 53.35169 -3.09737 33062 ft 454 kts 134°
2026-05-04 19:40 53.30211 -3.03220 33061 ft 457 kts 142°
2026-05-04 19:41 53.24950 -2.97251 33059 ft 456 kts 142°
2026-05-04 19:41 53.19711 -2.91334 33057 ft 455 kts 142°
2026-05-04 19:42 53.14504 -2.85452 33057 ft 455 kts 142°
2026-05-04 19:42 53.09287 -2.79561 33058 ft 453 kts 142°
2026-05-04 19:43 53.04084 -2.73707 33058 ft 452 kts 142°
2026-05-04 19:43 52.98896 -2.67882 33056 ft 451 kts 142°
2026-05-04 19:44 52.93722 -2.62090 33056 ft 449 kts 142°
2026-05-04 19:44 52.88560 -2.56330 33050 ft 449 kts 142°
2026-05-04 19:45 52.83384 -2.50571 33053 ft 449 kts 142°
2026-05-04 19:45 52.78233 -2.44865 33063 ft 448 kts 142°
2026-05-04 19:46 52.73046 -2.39130 33060 ft 446 kts 143°
2026-05-04 19:46 52.67852 -2.33420 33060 ft 446 kts 144°
2026-05-04 19:47 52.62742 -2.27808 33049 ft 444 kts 144°
2026-05-04 19:47 52.57547 -2.22128 33055 ft 444 kts 144°
2026-05-04 19:48 52.52388 -2.16489 33051 ft 443 kts 144°
2026-05-04 19:48 52.47271 -2.10919 32880 ft 444 kts 144°
2026-05-04 19:48 52.44689 -2.08111 32555 ft 442 kts 145°
2026-05-04 19:49 52.42086 -2.05290 32034 ft 439 kts 145°
2026-05-04 19:49 52.39545 -2.02539 31386 ft 438 kts 146°
2026-05-04 19:49 52.36958 -1.99728 30251 ft 447 kts 146°
2026-05-04 19:49 52.34359 -1.96915 29007 ft 455 kts 147°
2026-05-04 19:50 52.31706 -1.94058 27889 ft 458 kts 147°
2026-05-04 19:50 52.29067 -1.91221 26846 ft 460 kts 148°
2026-05-04 19:50 52.26408 -1.88364 25757 ft 462 kts 148°
2026-05-04 19:50 52.23735 -1.85495 24727 ft 461 kts 149°
2026-05-04 19:51 52.21047 -1.82614 24030 ft 454 kts 149°
2026-05-04 19:51 52.18427 -1.79811 23375 ft 447 kts 149°
2026-05-04 19:51 52.15838 -1.77050 22634 ft 443 kts 149°
2026-05-04 19:51 52.13296 -1.74343 21872 ft 440 kts 149°
2026-05-04 19:52 52.10770 -1.71655 21127 ft 436 kts 148°
2026-05-04 19:52 52.08226 -1.68950 20366 ft 433 kts 148°
2026-05-04 19:52 52.05705 -1.66274 19624 ft 429 kts 148°
2026-05-04 19:52 52.03233 -1.63653 19035 ft 422 kts 148°
2026-05-04 19:53 52.00828 -1.61103 18602 ft 413 kts 147°
2026-05-04 19:53 51.98452 -1.58585 18224 ft 403 kts 147°
2026-05-04 19:53 51.96114 -1.56110 17869 ft 395 kts 147°
2026-05-04 19:53 51.93856 -1.53722 17527 ft 388 kts 147°
2026-05-04 19:54 51.91596 -1.51336 17187 ft 383 kts 147°
2026-05-04 19:54 51.89391 -1.49009 16854 ft 379 kts 147°
2026-05-04 19:54 51.87170 -1.46670 16520 ft 376 kts 147°
2026-05-04 19:54 51.84992 -1.44380 16193 ft 373 kts 147°
2026-05-04 19:55 51.82809 -1.42088 15866 ft 371 kts 147°
2026-05-04 19:55 51.80654 -1.39829 15539 ft 368 kts 147°
2026-05-04 19:55 51.78495 -1.37567 15215 ft 367 kts 147°
2026-05-04 19:55 51.76351 -1.35324 14961 ft 375 kts 147°
2026-05-04 19:56 51.74132 -1.33008 14982 ft 388 kts 148°
2026-05-04 19:56 51.71815 -1.30592 15006 ft 391 kts 148°
2026-05-04 19:56 51.69541 -1.28224 15016 ft 391 kts 148°
2026-05-04 19:56 51.67245 -1.25834 15020 ft 390 kts 148°
2026-05-04 19:57 51.64979 -1.23478 15022 ft 389 kts 148°
2026-05-04 19:57 51.62684 -1.21095 15021 ft 388 kts 148°
2026-05-04 19:57 51.60434 -1.18761 15022 ft 388 kts 148°
2026-05-04 19:57 51.58149 -1.16395 15023 ft 387 kts 148°
2026-05-04 19:58 51.55899 -1.14067 15023 ft 387 kts 148°
2026-05-04 19:58 51.53617 -1.11708 15024 ft 387 kts 147°
2026-05-04 19:58 51.51365 -1.09383 15032 ft 387 kts 148°
2026-05-04 19:58 51.49104 -1.07047 15043 ft 388 kts 147°
2026-05-04 19:59 51.46961 -1.04360 14755 ft 385 kts 137°
2026-05-04 19:59 51.45105 -1.01303 13892 ft 390 kts 133°
2026-05-04 19:59 51.43261 -0.98103 13002 ft 393 kts 132°
2026-05-04 19:59 51.41397 -0.94887 12272 ft 391 kts 132°
2026-05-04 20:00 51.39562 -0.91777 11608 ft 388 kts 133°
2026-05-04 20:00 51.37679 -0.88630 10922 ft 386 kts 133°
2026-05-04 20:00 51.35845 -0.85595 10354 ft 380 kts 133°
2026-05-04 20:00 51.34003 -0.82569 9827 ft 374 kts 134°
2026-05-04 20:01 51.32092 -0.79861 9305 ft 368 kts 146°
2026-05-04 20:01 51.29776 -0.78147 9044 ft 355 kts 159°
2026-05-04 20:01 51.27499 -0.76849 8806 ft 340 kts 160°
2026-05-04 20:01 51.25338 -0.75671 8511 ft 323 kts 160°
2026-05-04 20:02 51.23260 -0.74554 8229 ft 307 kts 161°
2026-05-04 20:02 51.21254 -0.73482 7958 ft 293 kts 161°
2026-05-04 20:02 51.19375 -0.72482 7645 ft 281 kts 161°
2026-05-04 20:02 51.17543 -0.71509 7150 ft 278 kts 161°
2026-05-04 20:03 51.15718 -0.70541 6611 ft 277 kts 161°
2026-05-04 20:03 51.13881 -0.69562 6077 ft 275 kts 161°
2026-05-04 20:03 51.12075 -0.68605 5565 ft 273 kts 159°
2026-05-04 20:03 51.10454 -0.67197 5082 ft 268 kts 135°
2026-05-04 20:04 51.09431 -0.64803 4904 ft 263 kts 109°
2026-05-04 20:04 51.09045 -0.62022 4724 ft 252 kts 91°
2026-05-04 20:04 51.09156 -0.59279 4540 ft 242 kts 78°
2026-05-04 20:04 51.09551 -0.56732 4365 ft 233 kts 73°
2026-05-04 20:05 51.09965 -0.54307 4172 ft 226 kts 73°
2026-05-04 20:05 51.10342 -0.51904 4010 ft 216 kts 75°
2026-05-04 20:05 51.10664 -0.49652 3890 ft 203 kts 76°
2026-05-04 20:05 51.10957 -0.47498 3604 ft 198 kts 76°
2026-05-04 20:06 51.11239 -0.45389 3312 ft 192 kts 76°
2026-05-04 20:06 51.11510 -0.43342 3037 ft 185 kts 76°
2026-05-04 20:06 51.11764 -0.41435 2770 ft 170 kts 75°
2026-05-04 20:06 51.11997 -0.39687 2588 ft 153 kts 75°
2026-05-04 20:07 51.12210 -0.38100 2369 ft 142 kts 75°
2026-05-04 20:07 51.12420 -0.36567 2173 ft 141 kts 74°
2026-05-04 20:07 51.12635 -0.35046 2002 ft 140 kts 74°
2026-05-04 20:07 51.12824 -0.33569 1839 ft 141 kts 76°
2026-05-04 20:08 51.13029 -0.32040 1651 ft 141 kts 75°
2026-05-04 20:08 51.13233 -0.30518 1446 ft 141 kts 76°
2026-05-04 20:08 51.13432 -0.28995 1251 ft 140 kts 76°
2026-05-04 20:08 51.13639 -0.27479 1078 ft 141 kts 75°
2026-05-04 20:09 51.13855 -0.25967 894 ft 140 kts 76°
2026-05-04 20:09 51.14065 -0.24466 708 ft 139 kts 76°
2026-05-04 20:09 51.14270 -0.22972 515 ft 138 kts 76°
2026-05-04 20:09 51.14476 -0.21477 339 ft 138 kts 76°
2026-05-04 20:10 51.14680 -0.19993 204 ft 133 kts 77°
2026-05-04 20:10 51.14852 -0.18754 201 ft 90 kts 78°
2026-05-04 20:10 51.14945 -0.18106 201 ft 33 kts 74°
2026-05-04 20:10 51.15023 -0.17860 201 ft 14 kts 55°
2026-05-04 20:11 51.15074 -0.17766 201 ft 8 kts 31°
2026-05-04 20:11 51.15134 -0.17762 201 ft 7 kts 351°
2026-05-04 20:11 51.15163 -0.17768 201 ft 0 kts 352°
2026-05-04 20:15 51.15173 -0.17771 200 ft 3 kts 352°
2026-05-04 20:15 51.15206 -0.17778 200 ft 6 kts 353°
2026-05-04 20:15 51.15252 -0.17746 200 ft 8 kts 60°
2026-05-04 20:16 51.15270 -0.17641 200 ft 11 kts 77°
2026-05-04 20:16 51.15288 -0.17510 200 ft 11 kts 77°
2026-05-04 20:16 51.15306 -0.17391 200 ft 10 kts 58°
2026-05-04 20:16 51.15380 -0.17381 200 ft 12 kts 346°
2026-05-04 20:17 51.15472 -0.17414 199 ft 14 kts 347°
2026-05-04 20:17 51.15575 -0.17449 199 ft 15 kts 347°
2026-05-04 20:17 51.15680 -0.17486 198 ft 15 kts 348°
2026-05-04 20:17 51.15748 -0.17500 198 ft 9 kts 21°
2026-05-04 20:18 51.15774 -0.17402 198 ft 11 kts 79°
2026-05-04 20:18 51.15791 -0.17272 198 ft 12 kts 77°
2026-05-04 20:18 51.15812 -0.17131 198 ft 11 kts 75°
2026-05-04 20:18 51.15864 -0.17071 198 ft 7 kts 17°
2026-05-04 20:19 51.15915 -0.17078 198 ft 8 kts 326°
2026-05-04 20:19 51.15951 -0.17122 198 ft 5 kts 322°
2026-05-04 20:19 51.15967 -0.17142 198 ft 1 kts 321°
2026-05-04 20:19 51.15969 -0.17144 198 ft 0 kts 321°